カタログに戻る

SL-14 R/B

運用中PO
NORAD 19275·ROCKET BODY·🇷🇺 Russia

打ち上げ Jul 5, 1988 から Plesetsk Cosmodrome

Loading…

次のパス (今後24時間)

TLE

最新Source: Space-Track

元期: Sep 14, 2026, 08:47 UTC

1 19275U 88056B   26257.36648367  .00000353  00000-0  38240-4 0  9998
2 19275  82.5139  47.2195 0017788 234.3288 125.6273 14.85239037 42670

AllMySatでSL-14 R/Bをリアルタイム追跡

Download on the App Store